COSMOS 2564 (761)

Last updated on Wed Oct 29 2025 00:03:20 GMT+0000 (Coordinated Universal Time)

1 54377U 22161A 25300.95755245 .00000016 00000+0 00000+0 0 9995 2 54377 64.7374 200.4191 0009483 213.4715 146.5350 2.13102066 22686
UTC large
Height (km)
Speed (km/s)
/
Latitude / Longitude
Inclination (degrees)
Orbital Period (minutes)
Azimuth
Elevation
Range (km)
Doppler Factor

Next 0 passes for location: London (51.5072 / 0.1276)

Sorry there are no passes over London.